Location: Clanezzo
(45.7500°N, 9.6000°E)
Time: 16:59:24
(UTC+00:00)

EO-79 - Pass Details

Date: 06 July 2022
Orbit: 588 x 603 km, 98.0° (Epoch: 18 August)

Event Time Altitude Azimuth Distance (km) Brightness Sun altitude
Rises 00:10:47 0° 27° (NNE) 2,861 ? -20.8°
Reaches altitude 10° 00:13:25 10° 43° (NE) 1,955 ? -20.7°
Maximum altitude 00:16:41 21° 93° (E) 1,360 ? -20.6°
Enters shadow 00:18:07 18° 121° (ESE) 1,493 ? -20.5°
